Time,TemperatureF,DewpointF,PressureIn,WindDirection,WindDirectionDegrees,WindSpeedMPH,WindSpeedGustMPH,Humidity,HourlyPrecipIn,Conditions,Clouds,dailyrainin,SolarRadiationWatts/m^2,SoftwareType,DateUTC
2013-03-13 00:02:00,22.0,18.0,-100.00,NNW,334,7.0,15.0,84,0.00,,,0.01,0.000000,,2013-03-13 05:02:00,
2013-03-13 00:11:00,20.0,17.0,-100.00,NNW,328,5.0,12.0,89,0.00,,,-99.99,0.000000,,2013-03-13 05:11:00,
2013-03-13 00:32:00,20.0,17.0,-100.00,NNW,328,5.0,12.0,89,0.00,,,-99.99,0.000000,,2013-03-13 05:32:00,
2013-03-13 00:42:00,20.0,17.0,-100.00,NNW,328,5.0,12.0,89,0.00,,,-99.99,0.000000,,2013-03-13 05:42:00,
2013-03-13 00:52:00,20.0,17.0,-100.00,NNW,328,5.0,12.0,89,0.00,,,-99.99,0.000000,,2013-03-13 05:52:00,
2013-03-13 01:02:00,20.0,17.0,-100.00,NNW,328,5.0,12.0,89,0.00,,,-99.99,0.000000,,2013-03-13 06:02:00,
2013-03-13 01:11:00,20.0,16.0,-100.00,NW,320,5.0,11.0,86,0.00,,,0.01,0.000000,,2013-03-13 06:11:00,
2013-03-13 01:33:00,20.0,16.0,-100.00,NW,320,5.0,11.0,86,0.00,,,0.01,0.000000,,2013-03-13 06:33:00,
2013-03-13 01:42:00,20.0,16.0,-100.00,NW,320,5.0,11.0,86,0.00,,,0.01,0.000000,,2013-03-13 06:42:00,
2013-03-13 01:52:00,20.0,16.0,-100.00,NW,320,5.0,11.0,86,0.00,,,0.01,0.000000,,2013-03-13 06:52:00,
2013-03-13 02:02:00,20.0,16.0,-100.00,NW,320,5.0,11.0,86,0.00,,,0.01,0.000000,,2013-03-13 07:02:00,
2013-03-13 02:11:00,16.0,15.0,-100.00,NNW,329,3.0,6.0,96,0.00,,,0.01,0.000000,,2013-03-13 07:11:00,
2013-03-13 02:43:00,16.0,15.0,-100.00,NNW,329,3.0,6.0,96,0.00,,,0.01,0.000000,,2013-03-13 07:43:00,
2013-03-13 02:53:00,16.0,15.0,-100.00,NNW,329,3.0,6.0,96,0.00,,,0.01,0.000000,,2013-03-13 07:53:00,
2013-03-13 03:03:00,16.0,15.0,-100.00,NNW,329,3.0,6.0,96,0.00,,,0.01,0.000000,,2013-03-13 08:03:00,
2013-03-13 03:11:00,18.0,18.0,-100.00,NNW,330,4.0,6.0,100,0.00,,,0.01,0.000000,,2013-03-13 08:11:00,
2013-03-13 03:43:00,18.0,18.0,-100.00,NNW,330,4.0,6.0,100,0.00,,,0.01,0.000000,,2013-03-13 08:43:00,
2013-03-13 03:54:00,18.0,18.0,-100.00,NNW,330,4.0,6.0,100,0.00,,,0.01,0.000000,,2013-03-13 08:54:00,
2013-03-13 04:02:00,18.0,18.0,-100.00,NNW,330,4.0,6.0,100,0.00,,,0.01,0.000000,,2013-03-13 09:02:00,
2013-03-13 04:11:00,16.0,15.0,-100.00,NNW,333,3.0,5.0,96,0.00,,,0.01,0.000000,,2013-03-13 09:11:00,
2013-03-13 04:32:00,16.0,15.0,-100.00,NNW,333,3.0,5.0,96,0.00,,,0.01,0.000000,,2013-03-13 09:32:00,
2013-03-13 04:42:00,16.0,15.0,-100.00,NNW,333,3.0,5.0,96,0.00,,,0.01,0.000000,,2013-03-13 09:42:00,
2013-03-13 04:52:00,16.0,15.0,-100.00,NNW,333,3.0,5.0,96,0.00,,,0.01,0.000000,,2013-03-13 09:52:00,
2013-03-13 05:02:00,16.0,15.0,-100.00,NNW,333,3.0,5.0,96,0.00,,,0.01,0.000000,,2013-03-13 10:02:00,
2013-03-13 05:11:00,15.0,14.0,-100.00,North,349,3.0,6.0,97,0.00,,,0.01,0.000000,,2013-03-13 10:11:00,
2013-03-13 05:32:00,15.0,14.0,-100.00,North,349,3.0,6.0,97,0.00,,,0.01,0.000000,,2013-03-13 10:32:00,
2013-03-13 05:42:00,15.0,14.0,-100.00,North,349,3.0,6.0,97,0.00,,,0.01,0.000000,,2013-03-13 10:42:00,
2013-03-13 05:52:00,15.0,14.0,-100.00,North,349,3.0,6.0,97,0.00,,,0.01,0.000000,,2013-03-13 10:52:00,
2013-03-13 06:02:00,15.0,14.0,-100.00,North,349,3.0,6.0,97,0.00,,,0.01,0.000000,,2013-03-13 11:02:00,
2013-03-13 06:11:00,13.0,12.0,-100.00,NNW,335,0.0,6.0,97,0.00,,,0.01,0.000000,,2013-03-13 11:11:00,
2013-03-13 06:32:00,13.0,12.0,-100.00,NNW,335,0.0,6.0,97,0.00,,,0.01,0.000000,,2013-03-13 11:32:00,
2013-03-13 06:42:00,13.0,12.0,-100.00,NNW,335,0.0,6.0,97,0.00,,,0.01,0.000000,,2013-03-13 11:42:00,
2013-03-13 06:52:00,13.0,12.0,-100.00,NNW,335,0.0,6.0,97,0.00,,,0.01,0.000000,,2013-03-13 11:52:00,
2013-03-13 07:02:00,13.0,12.0,-100.00,NNW,335,0.0,6.0,97,0.00,,,0.01,0.000000,,2013-03-13 12:02:00,
2013-03-13 07:11:00,13.0,13.0,-100.00,NNW,342,3.0,5.0,100,0.00,,,0.01,0.000000,,2013-03-13 12:11:00,
2013-03-13 07:32:00,13.0,13.0,-100.00,NNW,342,3.0,5.0,100,0.00,,,0.01,0.000000,,2013-03-13 12:32:00,
2013-03-13 07:42:00,13.0,13.0,-100.00,NNW,342,3.0,5.0,100,0.00,,,0.01,0.000000,,2013-03-13 12:42:00,
2013-03-13 07:53:00,13.0,13.0,-100.00,NNW,342,3.0,5.0,100,0.00,,,0.01,0.000000,,2013-03-13 12:53:00,
2013-03-13 08:02:00,13.0,13.0,-100.00,NNW,342,3.0,5.0,100,0.00,,,0.01,0.000000,,2013-03-13 13:02:00,
2013-03-13 08:11:00,15.0,15.0,-100.00,NNW,348,2.0,6.0,98,0.00,,,0.00,8.000000,,2013-03-13 13:11:00,
2013-03-13 08:33:00,15.0,15.0,-100.00,NNW,348,2.0,6.0,98,0.00,,,0.00,8.000000,,2013-03-13 13:33:00,
2013-03-13 08:43:00,15.0,15.0,-100.00,NNW,348,2.0,6.0,98,0.00,,,0.00,8.000000,,2013-03-13 13:43:00,
2013-03-13 08:52:00,15.0,15.0,-100.00,NNW,348,2.0,6.0,98,0.00,,,0.00,8.000000,,2013-03-13 13:52:00,
2013-03-13 09:02:00,15.0,15.0,-100.00,NNW,348,2.0,6.0,98,0.00,,,0.00,8.000000,,2013-03-13 14:02:00,
2013-03-13 09:11:00,20.0,16.0,-100.00,NNW,330,4.0,5.0,85,0.00,,,0.00,83.000000,,2013-03-13 14:11:00,
2013-03-13 09:34:00,20.0,16.0,-100.00,NNW,330,4.0,5.0,85,0.00,,,0.00,83.000000,,2013-03-13 14:34:00,
2013-03-13 09:42:00,20.0,16.0,-100.00,NNW,330,4.0,5.0,85,0.00,,,0.00,83.000000,,2013-03-13 14:42:00,
2013-03-13 09:53:00,20.0,16.0,-100.00,NNW,330,4.0,5.0,85,0.00,,,0.00,83.000000,,2013-03-13 14:53:00,
2013-03-13 10:03:00,20.0,16.0,-100.00,NNW,330,4.0,5.0,85,0.00,,,0.00,83.000000,,2013-03-13 15:03:00,
2013-03-13 10:11:00,24.0,18.0,-100.00,North,9,4.0,7.0,77,0.00,,,0.00,253.000000,,2013-03-13 15:11:00,
2013-03-13 10:43:00,24.0,18.0,-100.00,North,9,4.0,7.0,77,0.00,,,0.00,253.000000,,2013-03-13 15:43:00,
2013-03-13 10:53:00,24.0,18.0,-100.00,North,9,4.0,7.0,77,0.00,,,0.00,253.000000,,2013-03-13 15:53:00,
2013-03-13 11:03:00,24.0,18.0,-100.00,North,9,4.0,7.0,77,0.00,,,0.00,253.000000,,2013-03-13 16:03:00,
2013-03-13 11:11:00,27.0,18.0,-100.00,East,81,4.0,8.0,68,0.00,,,0.00,400.000000,,2013-03-13 16:11:00,
2013-03-13 11:33:00,27.0,18.0,-100.00,East,81,4.0,8.0,68,0.00,,,0.00,400.000000,,2013-03-13 16:33:00,
2013-03-13 11:42:00,27.0,18.0,-100.00,East,81,4.0,8.0,68,0.00,,,0.00,400.000000,,2013-03-13 16:42:00,
2013-03-13 11:52:00,27.0,18.0,-100.00,East,81,4.0,8.0,68,0.00,,,0.00,400.000000,,2013-03-13 16:52:00,
2013-03-13 12:02:00,27.0,18.0,-100.00,East,81,4.0,8.0,68,0.00,,,0.00,400.000000,,2013-03-13 17:02:00,
2013-03-13 12:11:00,28.0,21.0,-100.00,SSW,210,7.0,10.0,75,0.00,,,0.00,553.000000,,2013-03-13 17:11:00,
2013-03-13 12:33:00,28.0,21.0,-100.00,SSW,210,7.0,10.0,75,0.00,,,0.00,553.000000,,2013-03-13 17:33:00,
2013-03-13 12:42:00,28.0,21.0,-100.00,SSW,210,7.0,10.0,75,0.00,,,0.00,553.000000,,2013-03-13 17:42:00,
2013-03-13 12:53:00,28.0,21.0,-100.00,SSW,210,7.0,10.0,75,0.00,,,0.00,553.000000,,2013-03-13 17:53:00,
2013-03-13 13:02:00,28.0,21.0,-100.00,SSW,210,7.0,10.0,75,0.00,,,0.00,553.000000,,2013-03-13 18:02:00,
2013-03-13 13:11:00,30.0,19.0,-100.00,South,189,6.0,10.0,64,0.00,,,0.00,643.000000,,2013-03-13 18:11:00,
2013-03-13 13:43:00,30.0,19.0,-100.00,South,189,6.0,10.0,64,0.00,,,0.00,643.000000,,2013-03-13 18:43:00,
2013-03-13 13:52:00,30.0,19.0,-100.00,South,189,6.0,10.0,64,0.00,,,0.00,643.000000,,2013-03-13 18:52:00,
2013-03-13 14:02:00,30.0,19.0,-100.00,South,189,6.0,10.0,64,0.00,,,0.00,643.000000,,2013-03-13 19:02:00,
2013-03-13 14:11:00,33.0,21.0,-100.00,South,179,6.0,10.0,62,0.00,,,0.00,678.000000,,2013-03-13 19:11:00,
2013-03-13 14:43:00,33.0,21.0,-100.00,South,179,6.0,10.0,62,0.00,,,0.00,678.000000,,2013-03-13 19:43:00,
2013-03-13 14:53:00,33.0,21.0,-100.00,South,179,6.0,10.0,62,0.00,,,0.00,678.000000,,2013-03-13 19:53:00,
2013-03-13 15:02:00,33.0,21.0,-100.00,South,179,6.0,10.0,62,0.00,,,0.00,678.000000,,2013-03-13 20:02:00,
2013-03-13 15:11:00,34.0,23.0,-100.00,South,177,6.0,12.0,63,0.00,,,0.00,657.000000,,2013-03-13 20:11:00,
2013-03-13 15:32:00,34.0,23.0,-100.00,South,177,6.0,12.0,63,0.00,,,0.00,657.000000,,2013-03-13 20:32:00,
2013-03-13 15:42:00,34.0,23.0,-100.00,South,177,6.0,12.0,63,0.00,,,0.00,657.000000,,2013-03-13 20:42:00,
2013-03-13 15:52:00,34.0,23.0,-100.00,South,177,6.0,12.0,63,0.00,,,0.00,657.000000,,2013-03-13 20:52:00,
2013-03-13 16:02:00,34.0,23.0,-100.00,South,177,6.0,12.0,63,0.00,,,0.00,657.000000,,2013-03-13 21:02:00,
2013-03-13 16:11:00,36.0,23.0,-100.00,SSE,166,5.0,11.0,60,0.00,,,0.00,569.000000,,2013-03-13 21:11:00,
2013-03-13 16:34:00,36.0,23.0,-100.00,SSE,166,5.0,11.0,60,0.00,,,0.00,569.000000,,2013-03-13 21:34:00,
2013-03-13 16:42:00,36.0,23.0,-100.00,SSE,166,5.0,11.0,60,0.00,,,0.00,569.000000,,2013-03-13 21:42:00,
2013-03-13 16:52:00,36.0,23.0,-100.00,SSE,166,5.0,11.0,60,0.00,,,0.00,569.000000,,2013-03-13 21:52:00,
2013-03-13 17:02:00,36.0,23.0,-100.00,SSE,166,5.0,11.0,60,0.00,,,0.00,569.000000,,2013-03-13 22:02:00,
2013-03-13 17:11:00,36.0,24.0,-100.00,South,174,5.0,13.0,62,0.00,,,0.00,468.000000,,2013-03-13 22:11:00,
2013-03-13 17:42:00,36.0,24.0,-100.00,South,174,5.0,13.0,62,0.00,,,0.00,468.000000,,2013-03-13 22:42:00,
2013-03-13 17:52:00,36.0,24.0,-100.00,South,174,5.0,13.0,62,0.00,,,0.00,468.000000,,2013-03-13 22:52:00,
2013-03-13 18:02:00,36.0,24.0,-100.00,South,174,5.0,13.0,62,0.00,,,0.00,468.000000,,2013-03-13 23:02:00,
2013-03-13 18:11:00,35.0,24.0,-100.00,SSE,166,4.0,13.0,63,0.00,,,0.00,305.000000,,2013-03-13 23:11:00,
2013-03-13 18:43:00,35.0,24.0,-100.00,SSE,166,4.0,13.0,63,0.00,,,0.00,305.000000,,2013-03-13 23:43:00,
2013-03-13 18:52:00,35.0,24.0,-100.00,SSE,166,4.0,13.0,63,0.00,,,0.00,305.000000,,2013-03-13 23:52:00,
2013-03-13 19:02:00,35.0,24.0,-100.00,SSE,166,4.0,13.0,63,0.00,,,0.00,305.000000,,2013-03-14 00:02:00,
2013-03-13 19:11:00,31.0,23.0,-100.00,SSE,161,4.0,10.0,71,0.00,,,-99.99,92.000000,,2013-03-14 00:11:00,
2013-03-13 19:33:00,31.0,23.0,-100.00,SSE,161,4.0,10.0,71,0.00,,,-99.99,92.000000,,2013-03-14 00:33:00,
2013-03-13 19:42:00,31.0,23.0,-100.00,SSE,161,4.0,10.0,71,0.00,,,-99.99,92.000000,,2013-03-14 00:42:00,
2013-03-13 19:52:00,31.0,23.0,-100.00,SSE,161,4.0,10.0,71,0.00,,,-99.99,92.000000,,2013-03-14 00:52:00,
2013-03-13 20:02:00,31.0,23.0,-100.00,SSE,161,4.0,10.0,71,0.00,,,-99.99,92.000000,,2013-03-14 01:02:00,
2013-03-13 20:11:00,29.0,21.0,-100.00,SE,141,7.0,11.0,73,0.00,,,0.00,5.000000,,2013-03-14 01:11:00,
2013-03-13 20:32:00,29.0,21.0,-100.00,SE,141,7.0,11.0,73,0.00,,,0.00,5.000000,,2013-03-14 01:32:00,
2013-03-13 20:42:00,29.0,21.0,-100.00,SE,141,7.0,11.0,73,0.00,,,0.00,5.000000,,2013-03-14 01:42:00,
2013-03-13 20:53:00,29.0,21.0,-100.00,SE,141,7.0,11.0,73,0.00,,,0.00,5.000000,,2013-03-14 01:53:00,
2013-03-13 21:02:00,29.0,21.0,-100.00,SE,141,7.0,11.0,73,0.00,,,0.00,5.000000,,2013-03-14 02:02:00,
2013-03-13 21:11:00,29.0,21.0,-100.00,SE,145,7.0,12.0,72,0.00,,,0.00,0.000000,,2013-03-14 02:11:00,
2013-03-13 22:02:00,29.0,21.0,-100.00,SE,145,7.0,12.0,72,0.00,,,0.00,0.000000,,2013-03-14 03:02:00,
2013-03-13 22:11:00,29.0,23.0,-100.00,SSE,162,4.0,12.0,77,0.00,,,0.00,0.000000,,2013-03-14 03:11:00,
2013-03-13 22:33:00,29.0,23.0,-100.00,SSE,162,4.0,12.0,77,0.00,,,0.00,0.000000,,2013-03-14 03:33:00,
2013-03-13 22:42:00,29.0,23.0,-100.00,SSE,162,4.0,12.0,77,0.00,,,0.00,0.000000,,2013-03-14 03:42:00,
2013-03-13 22:53:00,29.0,23.0,-100.00,SSE,162,4.0,12.0,77,0.00,,,0.00,0.000000,,2013-03-14 03:53:00,
2013-03-13 23:11:00,29.0,23.0,-100.00,SSE,166,4.0,10.0,78,0.00,,,0.00,0.000000,,2013-03-14 04:11:00,
2013-03-13 23:32:00,29.0,23.0,-100.00,SSE,166,4.0,10.0,78,0.00,,,0.00,0.000000,,2013-03-14 04:32:00,
2013-03-13 23:42:00,29.0,23.0,-100.00,SSE,166,4.0,10.0,78,0.00,,,0.00,0.000000,,2013-03-14 04:42:00,
2013-03-13 23:52:00,29.0,23.0,-100.00,SSE,166,4.0,10.0,78,0.00,,,0.00,0.000000,,2013-03-14 04:52:00,